GFSCGP_sfc_temp_159.txt.gz
Temp
48 44 39 43 46 44 41 38 39 40 49 45 44 47 51 53 49 50 53 53 54 58 64 62 63 63 64 66 66 67 66 67 66 65 62 62 61 62 60 62 64 63 63 63
44 39 44 47 45 43 41 38 37 41 47 45 44 46 51 53 53 54 55 53 52 55 59 62 62 62 61 64 65 67 67 68 66 67 67 67 65 64 65 64 63 63 63 63
38 42 48 45 42 41 41 40 36 38 42 43 41 43 46 49 49 52 53 55 55 55 57 60 61 61 60 61 64 66 68 68 67 69 66 62 60 59 60 62 61 61 63 62
44 47 45 43 41 43 37 45 42 41 39 32 41 32 39 43 47 50 52 52 54 56 56 57 61 61 59 62 64 66 67 68 67 67 65 64 64 62 65 65 64 63 61 62
39 40 40 40 43 45 40 46 43 40 37 35 37 32 35 40 43 47 50 52 54 56 55 57 57 60 62 62 62 65 66 67 68 66 67 64 63 66 67 64 63 62 62 62
40 43 44 43 46 46 46 42 39 38 37 31 39 35 39 43 44 46 51 54 54 53 54 55 57 57 57 58 60 60 62 65 66 65 65 65 64 64 63 63 63 64 64 62
37 39 41 46 40 42 44 40 31 29 29 29 37 36 41 44 47 48 51 52 49 51 52 52 54 55 56 56 57 59 60 61 63 64 65 65 66 65 65 64 63 62 63 62
29 26 39 42 43 41 42 43 31 19 23 28 33 33 40 47 51 53 52 51 50 51 51 51 53 53 53 54 55 56 58 59 61 62 62 65 65 65 65 66 65 65 64 65
30 32 41 42 43 47 41 36 42 31 24 24 28 35 45 47 46 47 46 47 47 48 51 51 51 51 52 52 52 54 56 57 59 60 61 62 63 63 64 66 67 66 67 67
35 28 38 43 43 44 41 44 35 35 24 20 27 29 35 39 41 44 45 45 47 48 48 50 50 50 51 51 51 52 53 54 55 57 58 59 60 61 62 64 65 66 67 67
37 33 31 39 36 38 40 36 35 35 32 24 21 28 39 43 43 44 44 46 47 49 48 49 49 49 49 50 49 50 52 53 54 55 54 54 56 57 59 60 62 64 66 66
37 33 25 33 38 43 45 41 41 31 27 30 29 29 44 43 44 45 44 46 46 46 48 47 47 48 48 47 49 48 49 51 51 52 52 53 53 53 54 56 58 61 61 64
41 31 20 27 34 35 35 37 42 36 31 28 28 32 42 42 43 43 44 45 47 46 48 47 46 45 45 46 47 48 48 49 49 49 48 50 50 52 52 54 55 56 57 59
47 33 34 28 32 36 34 38 37 38 31 32 33 37 37 38 40 40 42 43 42 45 45 45 43 42 43 44 44 45 46 46 46 47 47 45 47 49 50 51 51 52 54 54
43 33 29 31 33 35 35 37 38 35 38 32 38 35 40 41 41 41 43 43 42 40 40 40 40 40 39 39 41 42 43 43 43 43 44 45 46 47 47 47 48 49 49 51
39 30 33 26 33 33 27 35 37 38 39 37 35 32 43 41 41 36 35 36 35 34 35 35 36 37 37 37 38 39 39 39 39 40 40 42 43 43 43 44 44 45 45 47
37 31 30 27 31 31 23 31 33 34 35 38 32 40 42 37 33 30 30 31 31 32 32 32 33 33 34 34 36 35 35 36 36 36 38 39 39 38 39 40 41 41 43 45
36 34 30 22 25 20 33 35 38 37 36 39 36 30 30 31 28 27 28 27 27 29 29 29 30 30 31 32 33 33 32 32 33 33 35 35 34 34 35 36 37 39 41 41
43 33 22 22 21 23 29 32 32 32 33 28 26 26 27 29 28 23 26 26 27 27 27 28 28 28 28 29 29 28 28 29 29 30 31 31 30 30 31 32 34 36 36 37
39 39 30 16 18 14 28 31 32 39 30 23 26 23 23 27 22 22 23 25 25 25 25 24 25 25 26 25 25 25 24 25 25 26 26 27 28 28 28 29 31 33 34 35
30 30 27 18 12 18 26 26 30 24 24 22 22 20 21 21 20 21 23 22 24 23 23 24 22 22 23 23 22 21 21 21 24 24 24 25 25 25 27 29 30 29 30 33
29 27 25 18 19 19 19 25 29 23 23 21 19 18 18 19 20 20 20 20 21 20 21 22 19 19 21 21 20 19 19 22 21 22 21 21 21 22 24 23 25 28 31 30
26 31 27 28 25 18 20 19 21 24 20 18 18 17 17 16 16 17 17 18 19 19 19 20 17 18 20 20 20 17 19 20 19 18 16 17 19 21 23 22 23 26 28 28
24 27 21 20 16 16 17 18 19 19 17 18 17 16 16 13 17 17 18 17 17 17 16 16 15 15 15 17 17 17 18 18 15 13 15 17 17 18 21 24 25 25 25 27
20 24 19 16 16 16 17 17 18 17 18 16 16 16 14 15 15 14 14 13 14 14 14 13 13 13 13 14 14 15 16 16 13 13 14 14 15 14 16 18 19 21 24 26
13 16 22 20 18 19 17 17 18 16 14 14 14 13 14 14 12 11 11 11 11 10 11 10 10 10 10 11 11 12 12 12 10 9 10 11 12 12 14 15 16 23 25 27

GFSCGP_sfc_temp_162.txt.gz
Temp
49 40 37 41 45 42 39 36 37 37 45 43 42 44 51 52 47 48 52 49 50 54 61 61 61 61 60 60 61 64 65 65 64 63 60 60 60 60 61 61 62 62 62 61
43 38 42 44 44 42 38 35 34 40 44 43 40 41 47 49 49 50 51 50 50 52 55 59 60 59 60 61 61 63 65 66 65 66 65 65 64 64 63 62 62 62 62 62
36 38 46 43 40 40 40 38 34 36 41 41 40 42 42 47 46 49 51 52 53 53 56 57 58 58 57 57 59 62 64 66 66 67 65 61 59 58 59 61 60 61 62 61
39 45 42 39 40 42 35 43 40 39 37 30 38 29 39 40 44 46 49 49 50 53 54 54 56 56 57 58 59 61 63 65 66 65 64 63 63 61 64 63 62 61 61 61
37 39 40 38 40 43 38 44 42 38 35 33 34 29 33 38 40 45 48 50 51 51 53 54 54 55 56 56 56 58 61 62 64 64 66 63 62 64 64 61 60 59 58 60
40 42 43 43 44 45 43 39 37 36 40 30 36 32 37 42 41 44 49 52 50 50 51 51 54 54 53 54 54 56 58 60 61 62 63 62 61 61 60 59 58 59 59 59
40 37 40 44 38 41 42 36 24 24 27 26 34 31 40 41 44 46 48 50 48 48 50 51 50 50 52 52 54 56 57 58 60 61 61 61 61 61 60 60 59 60 59 60
30 27 38 41 42 39 41 39 25 16 20 28 33 31 40 45 51 52 50 48 49 49 49 49 49 49 49 50 52 55 56 56 57 59 59 60 61 60 61 61 62 63 63 63
30 31 40 41 43 47 40 35 41 30 26 22 28 33 43 45 44 44 44 45 45 47 48 48 48 47 47 49 49 52 53 53 55 55 57 58 59 61 62 63 63 64 64 64
34 27 36 40 43 44 40 44 32 33 21 21 26 28 35 37 41 42 41 42 45 46 46 46 46 46 47 47 49 49 50 50 51 52 53 54 54 55 56 57 57 59 61 63
35 32 30 38 36 37 37 35 34 35 32 24 19 27 38 42 42 40 41 44 45 46 45 44 44 44 45 46 46 46 47 46 47 48 49 49 50 51 52 53 54 54 55 57
35 32 26 32 37 44 44 39 39 30 26 31 30 30 42 43 43 43 42 44 45 45 43 42 42 42 42 42 43 43 43 44 44 46 46 47 48 49 49 50 51 51 52 54
39 32 22 27 33 33 35 39 41 36 30 29 25 30 40 39 41 41 41 42 42 41 41 41 40 40 40 40 40 41 41 41 41 43 43 44 45 45 46 47 48 48 49 49
46 34 33 28 31 34 32 37 38 38 30 32 32 33 35 35 37 38 41 39 37 38 38 39 39 39 38 38 37 38 38 39 39 39 40 40 41 43 43 44 45 45 46 46
42 30 32 36 32 34 34 36 37 34 37 31 36 34 43 38 38 38 37 36 35 34 34 35 35 35 35 34 35 36 36 36 36 36 37 38 39 40 40 40 41 42 42 44
41 28 32 24 32 34 29 34 37 37 37 37 33 35 40 40 36 33 33 33 31 31 31 32 32 32 32 32 33 34 33 33 34 34 34 36 37 36 35 35 36 37 38 40
34 32 30 26 32 31 24 32 35 37 39 38 32 40 39 32 32 30 29 29 28 28 28 28 28 28 29 29 31 29 29 30 31 30 32 32 31 30 30 31 32 33 34 36
35 33 30 24 28 20 33 35 42 38 39 41 35 35 35 34 26 25 26 26 26 26 26 26 25 25 26 27 27 26 27 27 27 27 26 26 25 25 27 28 28 29 31 31
40 34 24 21 24 25 28 30 31 32 33 33 37 26 25 24 25 20 24 25 24 23 25 24 25 24 25 24 24 24 24 24 24 23 22 23 23 23 24 24 25 27 28 29
40 40 32 18 21 19 27 28 29 38 29 24 28 27 25 26 25 20 22 24 23 24 23 23 23 23 23 22 23 22 21 22 20 20 21 22 22 21 20 21 22 24 24 26
30 31 27 23 22 22 29 27 29 24 26 23 24 22 24 23 19 20 22 21 23 22 22 22 21 20 21 22 21 20 20 19 20 21 21 21 21 20 21 21 22 23 23 25
30 27 25 23 21 20 21 26 30 24 23 21 19 20 19 19 19 19 19 20 20 18 20 20 18 19 20 20 19 18 18 19 19 19 18 17 18 19 21 19 20 21 22 22
28 31 24 27 24 19 20 19 22 24 20 19 18 18 18 17 16 17 16 18 18 17 18 18 16 17 18 18 18 16 16 18 16 14 13 14 16 18 19 17 18 17 18 18
23 27 22 19 17 17 17 18 19 20 18 19 18 17 16 15 18 17 18 17 16 16 15 15 14 14 14 15 15 15 15 15 12 10 12 14 14 14 16 17 17 16 16 17
24 27 19 15 15 16 17 17 17 17 18 17 17 16 15 17 14 15 13 13 13 13 12 13 12 12 11 12 12 12 13 13 10 11 11 11 12 12 13 15 15 17 19 20
16 21 23 22 18 18 17 18 19 17 15 16 14 13 14 15 12 12 10 10 10 9 10 9 9 9 9 8 8 9 8 10 7 7 8 9 10 10 12 13 13 19 22 24

GFSCGP_sfc_temp_165.txt.gz
Temp
46 38 35 40 44 41 39 36 37 38 46 44 43 45 51 52 50 50 52 52 54 57 63 62 63 63 63 63 63 65 66 67 67 65 63 64 63 64 64 65 65 65 66 65
41 37 41 43 43 41 38 35 35 41 45 44 42 42 47 49 50 53 55 54 53 54 59 61 61 60 60 62 62 63 65 66 66 67 67 67 67 67 66 66 65 65 65 65
36 38 45 42 39 39 39 37 35 37 40 42 40 42 42 47 51 49 53 56 55 56 58 58 59 59 60 60 61 63 64 66 66 67 66 65 64 62 63 64 63 63 64 64
40 43 41 37 38 41 34 42 40 38 37 31 40 32 40 43 44 46 49 50 53 54 55 55 57 58 58 59 59 60 63 65 66 67 66 64 65 63 66 65 65 64 63 64
36 37 38 36 38 42 36 43 41 39 36 34 33 30 35 39 42 45 50 50 51 52 54 55 55 55 56 55 55 57 60 62 65 65 67 64 64 66 66 65 63 62 62 63
38 41 42 42 42 44 42 38 37 37 37 29 34 34 39 41 42 46 51 52 52 54 53 53 53 53 53 53 55 58 60 61 63 63 64 63 63 63 63 63 62 62 62 62
36 36 38 43 37 40 41 35 23 26 26 25 33 31 40 42 43 48 50 52 51 50 50 50 50 50 51 51 53 56 57 56 60 62 62 63 63 63 63 63 63 62 62 62
31 27 37 41 41 37 39 39 25 17 19 26 33 29 39 46 53 54 50 50 50 48 48 47 48 47 49 49 50 52 52 53 55 57 58 59 61 61 62 63 63 63 63 64
31 31 40 40 44 45 37 34 41 30 27 23 29 33 43 44 45 47 47 45 46 46 46 46 45 45 46 46 46 48 49 49 51 52 54 55 56 56 57 57 59 59 60 62
34 27 36 39 44 44 39 44 33 34 19 16 27 28 35 38 42 43 43 43 44 44 43 43 43 43 44 45 45 46 46 46 47 49 50 51 51 52 54 54 54 55 57 57
35 32 30 37 36 36 38 36 36 35 31 24 22 30 37 42 45 44 41 43 43 42 41 41 41 41 41 42 43 42 43 43 44 45 46 47 48 49 50 50 51 51 52 53
36 32 26 32 35 43 44 39 38 31 28 32 30 29 41 42 43 43 41 41 40 40 38 38 38 39 39 39 41 41 41 40 41 42 43 44 45 46 46 46 47 48 48 50
41 33 25 28 31 32 35 38 40 37 31 29 27 32 41 40 39 41 40 39 38 37 37 37 37 37 37 38 39 39 38 38 39 39 40 41 41 42 42 42 44 44 45 46
46 33 33 28 32 33 31 36 38 37 31 32 32 36 36 36 38 38 37 36 36 36 36 37 36 36 36 36 36 36 36 36 36 37 37 37 38 39 38 39 39 40 41 41
40 30 34 36 32 33 34 35 36 34 37 31 36 35 42 38 37 38 35 34 34 33 33 33 32 33 33 34 34 34 33 33 34 34 34 35 35 34 34 34 34 36 37 38
39 30 32 30 33 33 30 34 37 37 38 37 36 33 46 38 36 33 35 34 31 31 30 30 30 30 29 29 29 29 29 30 31 31 30 30 29 29 29 30 31 32 33 34
34 32 29 26 32 32 26 33 34 36 39 39 32 41 37 33 39 34 32 32 30 29 28 27 26 27 27 26 27 25 26 28 27 28 27 26 26 26 27 27 28 28 29 31
34 32 31 24 28 19 33 35 41 37 39 42 41 38 39 36 26 25 27 28 28 27 26 25 24 24 25 25 24 25 26 25 25 24 24 24 24 24 24 24 25 25 26 26
42 35 29 25 25 26 31 30 32 33 36 39 41 27 24 24 26 20 24 25 24 24 24 24 24 24 23 22 23 24 23 23 23 22 22 22 22 22 22 22 23 24 24 24
39 39 31 23 21 20 29 29 30 39 30 31 35 27 24 28 28 23 22 24 23 23 23 22 22 23 22 22 22 23 21 21 20 21 21 22 22 21 20 21 22 23 23 24
29 31 27 24 24 25 29 29 30 26 30 25 28 29 27 27 22 21 22 21 22 22 22 20 21 20 20 21 21 21 20 18 20 20 20 20 20 20 21 21 21 21 21 22
29 28 27 25 22 20 24 27 30 29 22 23 22 22 20 18 19 19 20 19 19 18 19 19 18 19 20 20 19 18 17 19 18 17 16 16 17 18 20 18 18 19 19 18
26 32 27 29 27 19 19 20 23 24 21 20 20 21 20 17 16 17 16 17 17 17 18 17 16 17 17 17 18 15 15 16 15 12 11 13 15 16 17 16 16 15 17 16
24 26 20 21 18 17 17 18 20 21 20 20 20 19 19 15 17 16 17 17 15 15 14 15 14 14 13 14 14 14 14 13 10 9 11 12 12 12 14 16 16 14 14 15
25 26 19 14 15 16 17 18 18 18 19 18 18 19 18 18 17 16 14 13 13 13 12 13 12 12 11 11 11 11 11 10 9 8 9 10 11 10 11 13 14 15 17 18
19 24 26 26 21 22 19 19 19 17 16 16 16 15 17 17 14 14 12 12 11 10 10 10 9 9 8 7 7 7 6 7 5 4 6 7 7 8 9 10 10 16 18 20

GFSCGP_sfc_temp_168.txt.gz
Temp
53 46 42 49 52 54 53 50 50 51 55 54 55 56 61 66 65 64 67 69 71 72 77 78 78 78 78 78 77 78 78 78 77 75 73 69 67 69 73 75 73 72 74 73
46 41 52 52 52 50 48 47 47 49 53 52 54 53 59 62 63 65 67 68 69 71 74 75 76 76 75 75 76 76 76 77 77 77 76 75 74 72 72 74 73 73 73 72
44 49 53 48 46 45 46 45 47 47 49 52 49 50 54 60 62 64 67 68 70 70 70 73 75 74 74 73 73 74 76 77 78 77 77 75 75 74 73 72 72 72 71 71
47 54 48 46 46 48 42 51 48 46 45 42 50 43 57 58 56 57 61 64 67 69 70 69 69 71 71 69 70 71 73 74 76 77 74 72 72 71 74 74 73 72 71 71
43 44 44 43 46 50 46 51 47 46 43 43 46 40 52 53 54 56 61 63 67 68 67 67 66 64 65 64 65 68 69 71 73 74 73 72 70 73 75 74 70 70 70 70
49 51 50 49 50 50 51 46 45 45 43 32 44 43 48 56 56 58 62 65 65 65 66 64 62 62 62 63 65 67 68 68 70 71 71 71 71 71 70 70 69 70 71 71
43 43 47 51 45 48 47 43 32 29 29 30 48 42 47 55 54 58 61 65 66 63 63 61 60 58 57 58 60 61 63 60 62 64 65 68 69 69 67 67 67 67 68 69
34 30 43 48 48 42 42 43 35 25 30 36 43 36 47 59 63 63 63 65 61 61 59 57 55 55 55 55 57 58 58 58 57 57 57 57 57 57 57 57 60 59 60 61
36 37 48 47 51 50 42 37 49 39 30 33 42 45 51 55 56 58 60 61 60 57 55 53 53 54 54 52 53 54 55 55 56 57 57 56 56 56 56 56 57 58 59 60
44 35 44 46 50 51 47 50 35 38 27 25 37 40 44 48 52 58 59 57 56 53 52 52 52 51 51 51 52 52 52 52 53 54 55 55 56 56 57 57 56 56 58 59
46 42 36 43 40 40 39 39 41 42 38 31 29 39 57 55 57 57 59 60 54 52 51 49 48 49 49 50 50 49 49 48 48 50 51 51 52 53 53 53 53 53 54 55
45 42 34 35 48 51 47 43 43 35 32 38 38 40 52 53 55 57 57 54 53 51 49 48 47 47 47 47 47 46 45 45 45 47 47 48 49 49 48 48 49 49 49 51
44 34 28 29 36 42 40 43 44 45 41 34 30 37 56 52 50 51 51 50 49 47 46 46 46 45 45 45 44 43 43 42 43 44 45 45 44 43 43 43 44 45 45 46
48 40 35 32 38 42 35 40 43 41 32 35 37 42 51 49 51 47 48 48 46 46 44 45 43 42 41 41 42 41 40 40 40 41 41 39 38 38 39 39 40 40 41 42
43 32 38 40 45 44 42 40 41 37 40 35 41 42 49 54 50 49 49 46 44 43 43 42 40 39 38 38 38 37 36 36 37 37 35 34 33 35 36 35 36 37 38 38
42 32 35 31 41 42 36 42 42 41 42 41 43 42 55 58 56 49 46 43 42 42 41 38 36 35 34 34 33 33 33 33 35 32 31 31 32 32 31 32 33 34 34 35
37 33 31 28 37 36 27 35 40 42 45 44 38 46 54 50 47 46 45 44 43 41 38 36 34 33 32 31 30 30 31 33 32 31 31 30 29 29 30 30 31 31 31 33
33 32 32 30 30 21 35 46 44 43 45 48 48 50 52 53 48 47 49 45 41 38 35 33 32 31 30 29 29 31 30 30 30 29 28 28 27 27 28 29 29 30 30 30
38 35 30 27 27 35 38 40 41 38 40 49 47 49 52 37 36 31 36 42 38 35 32 31 30 29 28 28 29 29 28 28 28 26 26 26 26 25 26 26 27 28 28 29
39 39 32 29 24 23 39 44 47 49 34 50 49 49 42 36 36 46 32 32 30 30 29 28 28 27 27 26 28 27 25 25 24 24 24 25 25 24 25 26 26 26 27 27
30 31 28 29 27 31 43 36 44 29 37 47 49 49 37 38 40 35 30 29 29 27 25 27 27 25 24 25 26 24 24 22 23 23 23 23 23 22 24 24 24 24 24 24
31 29 29 31 27 24 37 34 38 40 30 32 34 38 36 28 26 27 26 25 25 23 23 24 23 22 22 23 24 22 21 21 21 20 19 18 19 21 22 20 21 21 21 21
29 36 32 34 33 26 27 27 26 28 28 26 28 28 27 24 24 24 22 23 22 22 21 22 22 20 20 20 20 19 18 18 17 14 13 15 16 18 18 18 18 18 19 19
28 31 31 30 25 24 23 22 24 26 27 26 28 26 26 23 23 22 22 21 20 19 19 19 19 18 16 16 16 16 16 15 11 11 13 14 14 14 16 17 18 17 17 17
29 29 25 25 19 19 23 24 24 23 24 23 24 24 24 23 21 21 20 18 18 17 17 17 16 15 14 14 13 13 12 11 10 10 11 12 13 13 13 15 15 16 18 18
28 28 30 31 27 28 26 25 24 22 21 22 21 20 23 23 20 19 16 17 16 14 14 13 13 12 11 10 9 8 7 7 6 7 9 9 10 10 11 12 12 16 17 17

GFSCGP_sfc_temp_171.txt.gz
Temp
55 49 46 53 57 58 56 57 54 59 63 57 57 59 65 70 70 69 70 73 76 76 80 81 82 83 81 82 81 82 82 82 81 79 77 76 76 77 78 78 76 72 73 75
49 43 56 59 58 55 54 51 53 58 57 55 56 57 64 67 68 70 71 72 73 76 79 80 81 81 80 79 80 80 80 81 82 80 79 79 78 76 76 77 77 75 72 73
46 53 56 54 51 49 51 49 51 51 53 55 53 51 57 64 67 69 71 73 74 74 75 77 79 80 80 79 78 78 79 80 81 81 80 79 78 78 75 74 74 74 73 72
49 56 53 49 48 51 45 55 53 51 46 43 54 44 58 66 66 65 66 69 71 73 74 76 76 75 76 76 76 75 76 78 80 80 78 76 75 73 76 76 76 74 72 71
45 48 49 47 47 53 48 56 52 50 46 45 48 43 52 62 60 61 64 66 70 72 74 75 74 71 71 68 69 70 72 74 76 77 76 75 73 75 77 78 74 71 72 72
50 56 54 52 55 54 56 51 49 49 46 34 45 47 50 56 60 63 65 68 69 71 71 71 68 66 66 66 67 70 71 71 73 74 74 74 73 72 72 72 69 67 68 71
44 46 52 54 48 52 49 45 33 30 30 31 51 46 50 60 64 61 64 66 70 70 68 66 64 62 61 61 62 64 64 61 62 61 61 62 65 64 62 63 64 63 64 64
35 31 44 50 49 43 44 45 37 28 32 38 48 39 50 63 66 66 65 67 69 67 65 62 60 59 58 58 60 61 60 59 58 57 56 57 57 56 56 57 57 56 56 57
35 37 50 51 53 52 43 38 50 39 37 33 44 50 57 60 59 63 65 65 66 63 60 57 57 57 56 55 56 57 57 57 58 57 56 55 56 55 55 55 56 57 57 59
47 36 48 49 51 53 48 51 36 38 27 27 39 43 48 54 56 60 61 63 64 61 57 56 56 55 55 55 55 55 55 54 55 56 56 55 55 55 55 55 53 54 55 56
47 42 41 46 41 41 42 40 43 44 38 32 32 41 59 59 62 60 62 65 66 58 56 55 54 54 53 53 53 52 51 51 51 52 53 53 52 52 52 51 51 51 52 52
45 42 35 36 48 51 48 43 44 35 33 38 37 42 59 59 60 64 64 66 64 58 56 54 52 52 52 51 50 49 48 48 48 50 50 49 49 48 47 47 47 47 47 49
44 33 29 32 39 45 41 46 47 46 44 36 32 38 60 61 57 58 58 60 58 56 54 52 50 50 50 49 47 46 45 44 45 46 45 44 43 43 42 42 43 43 43 44
48 40 33 32 38 44 36 41 44 44 32 36 38 42 52 57 57 59 56 57 55 53 51 50 50 48 47 46 44 43 41 41 43 42 40 38 38 38 39 39 39 39 40 40
45 32 38 41 44 47 44 42 42 38 41 35 41 44 51 56 59 61 58 56 52 50 49 49 47 45 43 42 41 41 40 39 40 38 36 35 36 37 36 35 36 37 37 37
46 33 38 31 40 42 38 43 44 43 43 41 42 43 56 59 61 59 55 53 49 49 48 48 45 42 41 39 38 38 37 36 37 36 34 34 35 34 33 34 34 35 35 35
37 33 31 28 38 38 30 38 42 44 46 45 38 46 55 54 56 57 54 52 49 49 48 45 42 40 38 36 36 35 35 36 35 34 33 32 32 32 32 33 33 32 33 34
35 32 32 29 32 22 37 50 49 46 47 50 50 52 54 55 57 59 59 52 50 49 46 42 41 37 35 34 34 34 33 33 33 31 31 30 30 30 30 31 31 31 31 31
39 36 29 26 27 34 41 46 45 43 41 51 50 52 54 56 48 47 53 56 53 49 45 41 38 35 33 32 33 32 31 31 29 28 28 28 28 27 28 28 28 29 28 28
36 36 31 30 25 23 35 44 53 51 33 51 51 51 52 51 40 49 44 48 47 43 39 35 33 32 30 30 31 29 28 26 26 26 26 26 26 25 26 27 26 26 27 27
28 30 27 29 27 34 48 45 50 30 37 50 51 52 52 48 50 50 43 39 38 35 33 32 31 29 28 29 30 27 26 24 24 24 24 23 23 23 25 24 24 24 24 24
30 27 27 28 26 24 47 41 40 44 41 37 41 45 49 53 38 37 36 33 32 29 29 29 27 25 26 27 27 23 19 21 21 19 20 19 19 21 22 20 21 21 22 21
32 39 35 37 36 37 45 40 31 32 34 34 34 36 37 33 32 33 31 29 28 27 27 27 25 22 22 23 25 21 19 19 17 15 14 16 17 19 19 18 18 19 19 19
35 35 33 34 34 33 32 29 28 29 31 31 31 32 33 30 30 28 27 26 25 24 23 24 21 19 17 19 18 17 17 16 13 12 14 16 15 15 17 17 18 17 16 16
35 32 32 31 31 28 31 30 30 27 27 27 28 29 30 29 27 25 24 23 22 21 21 21 20 18 15 16 14 13 13 13 12 12 13 13 14 13 14 16 15 16 17 17
32 32 29 34 29 33 33 31 29 25 24 26 26 25 27 26 24 23 21 21 19 18 18 17 17 15 13 12 10 8 8 8 7 10 10 10 10 11 12 12 12 17 17 18